User: anonymous   Login
Location: Caltech
(34.1382°N, 118.1253°W)
Time: 12:31:29
(UTC-07:00)
Language:

Cosmos 2360 Rocket - Orbit

View from above orbital plane
View from above orbital plane
View from above satellite
View from above satellite

Ground track
Ground track

The orbit data is extracted from the following two-line orbital elements,

1 25407U 98045B   16181.93694222 -.00000104 +00000-0 -28609-4 0  9994
2 25407 071.0117 061.6664 0007182 007.9655 352.1581 14.15745088926056
Epoch (UTC): 29 June 2016 22:29:11
Eccentricity: 0.0007182
inclination: 71.0117°
perigee height: 834 km
apogee height: 845 km
right ascension of ascending node: 61.6664°
argument of perigee: 7.9655°
revolutions per day: 14.15745088
mean anomaly at epoch: 352.1581°
orbit number at epoch: 92605

The dashed part of the orbit path shows where the satellite is in the earth's shadow,  

DLR